User: anonymous   Login
Location: Unspecified
(43.0000°N, 0.0000°E)
Time: 09:37:49
(UTC+00:00)
Language:

PicSat - Orbit

View from above orbital plane
View from above orbital plane
View from above satellite
View from above satellite

Ground track
Ground track

The orbit data is extracted from the following two-line orbital elements,

1 43131U 18004W   19228.89523147 +.00000939 +00000-0 +41431-4 0  9994
2 43131 097.4856 296.8720 0010646 052.8916 307.3292 15.24246641088530
Epoch (UTC): 16 August 2019 21:29:07
Eccentricity: 0.0010646
inclination: 97.4856°
perigee height: 486 km
apogee height: 500 km
right ascension of ascending node: 296.8720°
argument of perigee: 52.8916°
revolutions per day: 15.24246641
mean anomaly at epoch: 307.3292°
orbit number at epoch: 8853

The dashed part of the orbit path shows where the satellite is in the earth's shadow,  

DLR